Regional Weather Roundup
Issued by NWS Newport/Morehead, NC

Current Version | Previous Version | Text Only | Print | Product List | Glossary On
Versions: 1 2 3 4 5 6 7 8 9 10 11 12 13 14 15 16 17 18 19 20 21 22 23 24 25 26 27 28 29 30 31 32 33 34 35 36 37 38 39 40 41 42 43 44 45 46 47 48 49 50
000
ASUS42 KMHX 261024
RWRMHX
WEATHER ROUNDUP FOR EASTERN NORTH CAROLINA
NATIONAL WEATHER SERVICE NEWPORT/MOREHEAD CITY NC
600 AM EDT SUN APR 26 2015

NOTE: "FAIR" INDICATES FEW OR NO CLOUDS BELOW 12,000 FEET
WITH NO SIGNIFICANT WEATHER AND/OR OBSTRUCTIONS TO VISIBILITY

NCZ015>017-031-032-045>047-102-103-261100-
NORTH COAST

CITY           SKY/WX    TMP DP  RH WIND       PRES   REMARKS
EDENTON        CLOUDY    47  46  95 NE8G16    29.60S
ELIZABETH CITY CLOUDY    47  45  93 NE16      29.61S
KITTY HAWK     CLOUDY    47  47 100 N13G20    29.59R FOG
MANTEO         CLOUDY    48  47  97 NE16      29.60S

$$

NCZ045>047-081-094-103-104-261100-
CENTRAL COAST

CITY           SKY/WX    TMP DP  RH WIND       PRES   REMARKS
FRISCO         CLOUDY    52  52 100 NE15G26   29.55F
SWANQUARTER      N/A     52 N/A N/A NE9G17    29.53F

$$

NCZ095-097-098-100-101-261100-
SOUTHERN COAST

CITY           SKY/WX    TMP DP  RH WIND       PRES   REMARKS
BEAUFORT       CLOUDY    56  56 100 NE8       29.54F
CEDAR ISLAND     N/A     57 N/A N/A N10G21    29.59S
JACKSONVILLE   CLOUDY    56  55  97 N8        29.55R
PINEY ISLAND   CLOUDY   N/A N/A N/A NE10      29.55F
WILMINGTON     CLOUDY    63  62  97 NE6       29.54R FOG


$$

NCZ011>013-027>030-043-044-078>080-089-090>093-098-261100-
COASTAL PLAIN

CITY           SKY/WX    TMP DP  RH WIND       PRES   REMARKS
AHOSKIE        CLOUDY    46  45  95 NE6       29.61S
CLINTON        CLOUDY    52  52 100 CALM      29.57S FOG
ELIZABETHTOWN  RAIN      58  58 100 CALM      29.56R
GOLDSBORO      CLOUDY    49  49 100 NE7       29.56R FOG
GREENVILLE     CLOUDY    48  48 100 NE6       29.63R FOG
HAVELOCK       CLOUDY    55  53  93 NE13      29.56F
KENANSVILLE    CLOUDY    52  51  98 N3        29.59R FOG
KINSTON        CLOUDY    49  49 100 N7        29.59R FOG
NEW BERN       CLOUDY    53  51  93 NE9       29.58R FOG
RICHLANDS      CLOUDY    54  52  94 N8        29.57R
ROCKY MOUNT    CLOUDY    47  46  97 NE7       29.60S
WASHINGTON     CLOUDY    49  48  97 NE7       29.60R FOG
WHITEVILLE     CLOUDY    67  65  92 SW5       29.54R

$$

AMZ130-135-150-152-154-156-158-170-250-252-270-ANZ085-086-088-633-658-670-261100-
MARINE OBSERVATIONS

STATION/POSITION TIME  TEMP    WIND        PRES    WAVE   SWELL
                       AIR SEA DIR/SP/G            HT/PER HT/PER
                 (UTC) (F)     (DEG/KT/KT) (MB)    (FT/S) (FT/S)
CHESAPEAKE LIGHT 1000   46      40/ 20/ 21 1003.5
64 E VA BEACH    0950   52 59   20/ 19/ 23 1001.2    6/ 6   2/11
DUCK             1000   47 54   20/ 21/ 24 1001.3
2 E DUCK         0911      54                N/A     5/ 6
10 NE DUCK       NOT AVBL
OREGON INLET     1000   49 55  360/ 14/ 19 1001.9
HATTERAS CG      1000   56 65   20/ 17/ 23 1000.2
DIAMOND BUOY     0950   61 69   20/ 14/ 17 1000.1    3/ 8   2/ 8
CAPE LOOKOUT     1000   58      20/  8/ 10 1000.5
BEAUFORT LAB     1000   56 63   20/  8/ 11  999.5
27 SE WRIGHTSVLE 1000   67 72  270/ 16/ 17   N/A
5 SE WRIGHTSVLE  0908   66 65   40/  2/  6 1000.2
225 S CAPE HAT   0950   71 70  250/ 17/ 19 1001.8    5/ 6   2/11
41 SE CHARLESTON 0950   71 71  240/ 19/ 25 1001.7    5/ 4   2/ 9

$$



USA.gov is the U.S. government's official web portal to all federal, state and local government web resources and services.